This is the latest recevied weather packets stored in our database for station/object OK1VCF-8. If no packets are shown the sender has not sent any weather packets the latest 1 day(s).
| Time | Temp. | Humidity | Pressure | Rain* | Wind** | Luminosity | Snow |
|---|---|---|---|---|---|---|---|
| 1777952523 | 12.22° C | 91% | 1010 hPa | - | 0 m/s | - | - |
| 1777952086 | 12.22° C | 91% | 1010 hPa | - | 0 m/s | - | - |
| 1777951648 | 12.22° C | 90% | 1010.1 hPa | - | 0 m/s | - | - |
| 1777951208 | 12.78° C | 90% | 1010.1 hPa | - | 0 m/s | - | - |
| 1777950769 | 12.78° C | 90% | 1010.2 hPa | - | 0 m/s | - | - |
| 1777950331 | 13.33° C | 89% | 1010.4 hPa | - | 0 m/s | - | - |
| 1777949892 | 13.33° C | 89% | 1010.2 hPa | - | 0 m/s | - | - |
| 1777949455 | 13.33° C | 88% | 1010.4 hPa | - | 0 m/s | - | - |
| 1777949017 | 13.33° C | 88% | 1010.4 hPa | - | 0 m/s | - | - |
| 1777948578 | 13.33° C | 88% | 1010.4 hPa | - | 0 m/s | - | - |
| 1777948141 | 13.89° C | 87% | 1010.2 hPa | - | 0 m/s | - | - |
| 1777947704 | 14.44° C | 86% | 1010.2 hPa | - | 0 m/s | - | - |
| 1777947264 | 14.44° C | 86% | 1010.1 hPa | - | 0 m/s | - | - |
| 1777946662 | 14.44° C | 86% | 1010.3 hPa | - | 0 m/s | - | - |
| 1777946224 | 14.44° C | 85% | 1010.4 hPa | - | 0 m/s | - | - |
| 1777945786 | 14.44° C | 84% | 1010.2 hPa | - | 0 m/s | - | - |
| 1777945348 | 14.44° C | 84% | 1010.4 hPa | - | 0 m/s | - | - |
| 1777944910 | 15° C | 80% | 1010.4 hPa | - | 0 m/s | - | - |
| 1777944466 | 15° C | 78% | 1010.4 hPa | - | 0 m/s | - | - |
| 1777944017 | 15° C | 80% | 1010.5 hPa | - | 0 m/s | - | - |
| 1777943555 | 15.56° C | 79% | 1010.6 hPa | - | 0 m/s | - | - |
| 1777943083 | 15.56° C | 75% | 1010.7 hPa | - | 0 m/s | - | - |
| 1777942606 | 15.56° C | 74% | 1010.6 hPa | - | 0 m/s | - | - |
| 1777942124 | 15.56° C | 74% | 1011.2 hPa | - | 0 m/s | - | - |
| 1777941641 | 15.56° C | 75% | 1010.6 hPa | - | 0 m/s | - | - |
* Rain since midnight (hover to see other rain measurements)
** Current wind speed in m/s (hover to see current wind gust speed)